User: anonymous   Login
Location: Unspecified
(0.0000°N, 0.0000°E)
Time: 13:39:38
(UTC+00:00)
Language:

Meteor 2-4 - Orbit

View from above orbital plane
View from above orbital plane
View from above satellite
View from above satellite

Ground track
Ground track

The orbit data is extracted from the following two-line orbital elements,

1 11288U 79021A   18112.77830082 +.00000203 +00000-0 +10407-3 0  9997
2 11288 081.2171 174.5751 0025240 102.4201 257.9797 14.11840284014841
Epoch (UTC): 22 April 2018 18:40:45
Eccentricity: 0.0025240
inclination: 81.2171°
perigee height: 835 km
apogee height: 871 km
right ascension of ascending node: 174.5751°
argument of perigee: 102.4201°
revolutions per day: 14.11840284
mean anomaly at epoch: 257.9797°
orbit number at epoch: 1484

The dashed part of the orbit path shows where the satellite is in the earth's shadow,  

DLR